Time,TemperatureF,DewpointF,PressureIn,WindDirection,WindDirectionDegrees,WindSpeedMPH,WindSpeedGustMPH,Humidity,HourlyPrecipIn,Conditions,Clouds,dailyrainin,SoftwareType,DateUTC
2013-03-10 00:01:00,40.0,34.0,29.96,ESE,111,2.0,5.0,79,0.00,,,0.00,,2013-03-10 05:01:00,
2013-03-10 00:11:00,40.0,34.0,29.96,ESE,111,2.0,5.0,79,0.00,,,0.00,,2013-03-10 05:11:00,
2013-03-10 00:22:00,40.0,34.0,29.96,ESE,123,2.0,6.0,79,0.00,,,0.00,,2013-03-10 05:22:00,
2013-03-10 00:31:00,40.0,34.0,29.96,SE,137,2.0,5.0,79,0.00,,,0.00,,2013-03-10 05:31:00,
2013-03-10 00:42:00,40.0,34.0,29.95,SE,144,4.0,6.0,79,0.00,,,0.00,,2013-03-10 05:42:00,
2013-03-10 00:52:00,40.0,34.0,29.95,SE,144,4.0,6.0,79,0.00,,,0.00,,2013-03-10 05:52:00,
2013-03-10 01:01:00,40.0,34.0,29.95,SE,127,2.0,6.0,79,0.00,,,0.00,,2013-03-10 06:01:00,
2013-03-10 01:11:00,40.0,34.0,29.95,SE,127,2.0,6.0,79,0.00,,,0.00,,2013-03-10 06:11:00,
2013-03-10 01:22:00,40.0,34.0,29.94,ESE,102,3.0,5.0,79,0.00,,,0.00,,2013-03-10 06:22:00,
2013-03-10 01:32:00,40.0,34.0,29.93,SE,143,3.0,6.0,79,0.00,,,0.00,,2013-03-10 06:32:00,
2013-03-10 01:42:00,40.0,34.0,29.93,SE,143,3.0,6.0,79,0.00,,,0.00,,2013-03-10 06:42:00,
2013-03-10 01:51:00,41.0,35.0,29.93,ESE,123,3.0,6.0,79,0.00,,,0.00,,2013-03-10 06:51:00,
2013-03-10 03:02:00,41.0,34.0,29.93,ESE,123,3.0,6.0,77,0.00,,,0.00,,2013-03-10 07:02:00,
2013-03-10 03:11:00,41.0,34.0,29.93,ESE,123,3.0,6.0,77,0.00,,,0.00,,2013-03-10 07:11:00,
2013-03-10 03:21:00,41.0,34.0,29.92,SE,146,3.0,6.0,77,0.00,,,0.00,,2013-03-10 07:21:00,
2013-03-10 03:32:00,42.0,35.0,29.92,SE,138,3.0,6.0,76,0.00,,,0.00,,2013-03-10 07:32:00,
2013-03-10 03:42:00,42.0,35.0,29.91,SE,138,1.0,5.0,76,0.00,,,0.00,,2013-03-10 07:42:00,
2013-03-10 03:52:00,42.0,35.0,29.91,SE,138,1.0,5.0,76,0.00,,,0.00,,2013-03-10 07:52:00,
2013-03-10 04:01:00,42.0,35.0,29.91,SE,136,1.0,4.0,76,0.00,,,0.00,,2013-03-10 08:01:00,
2013-03-10 04:11:00,42.0,35.0,29.91,SE,136,1.0,4.0,76,0.00,,,0.00,,2013-03-10 08:11:00,
2013-03-10 04:21:00,42.0,35.0,29.91,SSE,159,1.0,4.0,76,0.00,,,0.00,,2013-03-10 08:21:00,
2013-03-10 04:31:00,42.0,35.0,29.90,South,173,1.0,3.0,76,0.00,,,0.00,,2013-03-10 08:31:00,
2013-03-10 04:42:00,42.0,35.0,29.90,South,173,1.0,3.0,76,0.00,,,0.00,,2013-03-10 08:42:00,
2013-03-10 04:51:00,42.0,35.0,29.90,South,173,1.0,3.0,76,0.00,,,0.00,,2013-03-10 08:51:00,
2013-03-10 05:01:00,42.0,35.0,29.90,SSE,158,0.0,3.0,75,0.00,,,0.00,,2013-03-10 09:01:00,
2013-03-10 05:11:00,42.0,35.0,29.90,SSE,158,0.0,3.0,75,0.00,,,0.00,,2013-03-10 09:11:00,
2013-03-10 05:21:00,42.0,35.0,29.90,SSE,158,0.0,0.0,75,0.00,,,0.00,,2013-03-10 09:21:00,
2013-03-10 05:31:00,42.0,36.0,29.91,SSE,158,0.0,0.0,79,0.00,,,0.00,,2013-03-10 09:31:00,
2013-03-10 05:41:00,42.0,36.0,29.91,SSE,158,0.0,0.0,79,0.00,,,0.00,,2013-03-10 09:41:00,
2013-03-10 05:51:00,41.0,36.0,29.91,SSE,158,0.0,0.0,82,0.01,,,0.01,,2013-03-10 09:51:00,
2013-03-10 06:01:00,40.0,36.0,29.92,SSE,158,0.0,0.0,86,0.03,,,0.03,,2013-03-10 10:01:00,
2013-03-10 06:11:00,40.0,36.0,29.92,SSE,158,0.0,0.0,86,0.03,,,0.03,,2013-03-10 10:11:00,
2013-03-10 06:21:00,40.0,37.0,29.91,SSE,158,0.0,0.0,90,0.04,,,0.04,,2013-03-10 10:21:00,
2013-03-10 06:32:00,40.0,37.0,29.90,SE,141,0.0,2.0,88,0.04,,,0.04,,2013-03-10 10:32:00,
2013-03-10 06:42:00,42.0,38.0,29.91,SE,124,0.0,3.0,85,0.03,,,0.04,,2013-03-10 10:42:00,
2013-03-10 06:52:00,42.0,38.0,29.91,SE,124,0.0,3.0,85,0.03,,,0.04,,2013-03-10 10:52:00,
2013-03-10 07:01:00,41.0,37.0,29.91,SE,124,0.0,2.0,85,0.01,,,0.04,,2013-03-10 11:01:00,
2013-03-10 07:12:00,41.0,37.0,29.91,SE,124,0.0,2.0,85,0.01,,,0.04,,2013-03-10 11:12:00,
2013-03-10 07:21:00,41.0,37.0,29.91,SSE,165,0.0,2.0,86,0.00,,,0.04,,2013-03-10 11:21:00,
2013-03-10 07:32:00,41.0,37.0,29.91,SE,131,1.0,3.0,87,0.01,,,0.05,,2013-03-10 11:32:00,
2013-03-10 07:42:00,41.0,37.0,29.91,SE,131,1.0,3.0,87,0.01,,,0.05,,2013-03-10 11:42:00,
2013-03-10 07:52:00,42.0,38.0,29.90,SE,130,0.0,3.0,87,0.01,,,0.05,,2013-03-10 11:52:00,
2013-03-10 08:01:00,42.0,38.0,29.90,SSW,199,1.0,5.0,85,0.01,,,0.05,,2013-03-10 12:01:00,
2013-03-10 08:11:00,42.0,38.0,29.90,SSW,199,1.0,5.0,85,0.01,,,0.05,,2013-03-10 12:11:00,
2013-03-10 08:21:00,42.0,38.0,29.89,SE,133,1.0,5.0,84,0.01,,,0.05,,2013-03-10 12:21:00,
2013-03-10 08:31:00,43.0,38.0,29.90,SSE,157,3.0,6.0,83,0.00,,,0.05,,2013-03-10 12:31:00,
2013-03-10 08:42:00,43.0,38.0,29.90,SSE,157,3.0,6.0,83,0.00,,,0.05,,2013-03-10 12:42:00,
2013-03-10 08:51:00,42.0,37.0,29.90,SE,136,1.0,3.0,83,0.00,,,0.05,,2013-03-10 12:51:00,
2013-03-10 09:01:00,43.0,38.0,29.90,South,171,0.0,5.0,83,0.00,,,0.05,,2013-03-10 13:01:00,
2013-03-10 09:11:00,43.0,38.0,29.90,South,171,0.0,5.0,83,0.00,,,0.05,,2013-03-10 13:11:00,
2013-03-10 09:21:00,43.0,38.0,29.88,SE,125,0.0,4.0,82,0.00,,,0.05,,2013-03-10 13:21:00,
2013-03-10 09:31:00,43.0,38.0,29.88,SSW,192,1.0,4.0,81,0.00,,,0.05,,2013-03-10 13:31:00,
2013-03-10 09:41:00,43.0,38.0,29.88,SSW,192,1.0,4.0,81,0.00,,,0.05,,2013-03-10 13:41:00,
2013-03-10 09:52:00,44.0,38.0,29.88,SE,135,2.0,6.0,80,0.00,,,0.05,,2013-03-10 13:52:00,
2013-03-10 10:01:00,45.0,39.0,29.88,SSW,193,2.0,6.0,79,0.00,,,0.05,,2013-03-10 14:01:00,
2013-03-10 10:11:00,45.0,39.0,29.88,SSW,193,2.0,6.0,79,0.00,,,0.05,,2013-03-10 14:11:00,
2013-03-10 10:21:00,45.0,39.0,29.88,South,188,3.0,6.0,79,0.00,,,0.05,,2013-03-10 14:21:00,
2013-03-10 10:32:00,46.0,40.0,29.87,East,94,3.0,8.0,78,0.00,,,0.05,,2013-03-10 14:32:00,
2013-03-10 10:41:00,46.0,40.0,29.87,East,94,3.0,8.0,78,0.00,,,0.05,,2013-03-10 14:41:00,
2013-03-10 10:51:00,46.0,40.0,29.87,East,94,3.0,8.0,78,0.00,,,0.05,,2013-03-10 14:51:00,
2013-03-10 11:01:00,46.0,39.0,29.86,SSE,149,2.0,7.0,77,0.00,,,0.05,,2013-03-10 15:01:00,
2013-03-10 11:11:00,46.0,39.0,29.86,SSE,149,2.0,7.0,77,0.00,,,0.05,,2013-03-10 15:11:00,
2013-03-10 11:21:00,47.0,40.0,29.87,South,185,2.0,6.0,76,0.00,,,0.05,,2013-03-10 15:21:00,
2013-03-10 11:32:00,47.0,40.0,29.87,South,181,2.0,7.0,76,0.00,,,0.05,,2013-03-10 15:32:00,
2013-03-10 11:42:00,47.0,40.0,29.87,South,181,2.0,7.0,76,0.00,,,0.05,,2013-03-10 15:42:00,
2013-03-10 11:51:00,48.0,41.0,29.87,South,171,3.0,6.0,76,0.00,,,0.05,,2013-03-10 15:51:00,
2013-03-10 12:01:00,49.0,41.0,29.87,SSW,198,3.0,8.0,75,0.00,,,0.05,,2013-03-10 16:01:00,
2013-03-10 12:12:00,49.0,41.0,29.87,SSW,198,3.0,8.0,75,0.00,,,0.05,,2013-03-10 16:12:00,
2013-03-10 12:21:00,49.0,41.0,29.87,SSW,211,1.0,7.0,74,0.00,,,0.05,,2013-03-10 16:21:00,
2013-03-10 12:32:00,50.0,42.0,29.87,SSE,150,2.0,6.0,74,0.00,,,0.05,,2013-03-10 16:32:00,
2013-03-10 12:41:00,50.0,42.0,29.87,SSE,150,2.0,6.0,74,0.00,,,0.05,,2013-03-10 16:41:00,
2013-03-10 12:51:00,50.0,42.0,29.87,SSE,159,2.0,6.0,74,0.00,,,0.05,,2013-03-10 16:51:00,
2013-03-10 13:01:00,51.0,43.0,29.85,SE,141,2.0,5.0,75,0.00,,,0.05,,2013-03-10 17:01:00,
2013-03-10 13:11:00,51.0,43.0,29.85,SE,141,2.0,5.0,75,0.00,,,0.05,,2013-03-10 17:11:00,
2013-03-10 13:21:00,52.0,44.0,29.85,SSE,160,3.0,9.0,73,0.00,,,0.05,,2013-03-10 17:21:00,
2013-03-10 13:31:00,52.0,43.0,29.85,South,187,3.0,6.0,71,0.00,,,0.05,,2013-03-10 17:31:00,
2013-03-10 13:41:00,52.0,43.0,29.85,South,187,3.0,6.0,71,0.00,,,0.05,,2013-03-10 17:41:00,
2013-03-10 13:51:00,53.0,45.0,29.85,SE,128,2.0,5.0,73,0.00,,,0.05,,2013-03-10 17:51:00,
2013-03-10 14:01:00,54.0,45.0,29.85,SE,134,2.0,6.0,72,0.00,,,0.05,,2013-03-10 18:01:00,
2013-03-10 14:11:00,54.0,45.0,29.85,SE,134,2.0,6.0,72,0.00,,,0.05,,2013-03-10 18:11:00,
2013-03-10 14:21:00,54.0,45.0,29.86,South,178,4.0,7.0,71,0.00,,,0.05,,2013-03-10 18:21:00,
2013-03-10 14:32:00,54.0,46.0,29.86,SSW,202,2.0,6.0,73,0.00,,,0.05,,2013-03-10 18:32:00,
2013-03-10 14:42:00,54.0,46.0,29.86,SSW,202,2.0,6.0,73,0.00,,,0.05,,2013-03-10 18:42:00,
2013-03-10 14:52:00,55.0,47.0,29.85,SE,132,3.0,5.0,74,0.00,,,0.05,,2013-03-10 18:52:00,
2013-03-10 15:01:00,56.0,47.0,29.85,SW,219,3.0,7.0,71,0.00,,,0.05,,2013-03-10 19:01:00,
2013-03-10 15:11:00,56.0,47.0,29.85,SW,219,3.0,7.0,71,0.00,,,0.05,,2013-03-10 19:11:00,
2013-03-10 15:21:00,57.0,48.0,29.81,SSE,154,3.0,7.0,71,0.00,,,0.05,,2013-03-10 19:21:00,
2013-03-10 15:32:00,57.0,47.0,29.80,SSE,158,4.0,9.0,70,0.00,,,0.05,,2013-03-10 19:32:00,
2013-03-10 15:42:00,57.0,47.0,29.80,SSE,158,4.0,9.0,70,0.00,,,0.05,,2013-03-10 19:42:00,
2013-03-10 15:52:00,58.0,48.0,29.80,SE,133,4.0,11.0,70,0.00,,,0.05,,2013-03-10 19:52:00,
2013-03-10 16:02:00,58.0,49.0,29.80,SSW,213,3.0,8.0,71,0.00,,,0.05,,2013-03-10 20:02:00,
2013-03-10 16:12:00,58.0,49.0,29.80,SSW,213,3.0,8.0,71,0.00,,,0.05,,2013-03-10 20:12:00,
2013-03-10 16:22:00,58.0,48.0,29.78,ESE,111,4.0,9.0,69,0.00,,,0.05,,2013-03-10 20:22:00,
2013-03-10 16:32:00,58.0,48.0,29.77,SE,137,4.0,13.0,69,0.00,,,0.05,,2013-03-10 20:32:00,
2013-03-10 16:42:00,58.0,48.0,29.77,SE,137,4.0,13.0,69,0.00,,,0.05,,2013-03-10 20:42:00,
2013-03-10 16:52:00,58.0,47.0,29.78,SSE,155,5.0,13.0,68,0.00,,,0.05,,2013-03-10 20:52:00,
2013-03-10 17:02:00,57.0,47.0,29.78,South,184,5.0,12.0,70,0.00,,,0.05,,2013-03-10 21:02:00,
2013-03-10 17:12:00,57.0,47.0,29.78,South,184,5.0,12.0,70,0.00,,,0.05,,2013-03-10 21:12:00,
2013-03-10 17:23:00,57.0,47.0,29.78,SSE,147,5.0,13.0,70,0.00,,,0.05,,2013-03-10 21:23:00,
2013-03-10 17:32:00,56.0,47.0,29.78,ESE,120,5.0,11.0,72,0.00,,,0.05,,2013-03-10 21:32:00,
2013-03-10 17:42:00,56.0,47.0,29.78,ESE,120,5.0,11.0,72,0.00,,,0.05,,2013-03-10 21:42:00,
2013-03-10 17:52:00,57.0,47.0,29.77,SE,126,6.0,11.0,70,0.00,,,0.05,,2013-03-10 21:52:00,
2013-03-10 18:02:00,56.0,46.0,29.75,SE,127,5.0,13.0,69,0.00,,,0.05,,2013-03-10 22:02:00,
2013-03-10 18:12:00,56.0,46.0,29.75,SE,127,5.0,13.0,69,0.00,,,0.05,,2013-03-10 22:12:00,
2013-03-10 18:22:00,56.0,46.0,29.74,SE,138,6.0,12.0,69,0.00,,,0.05,,2013-03-10 22:22:00,
2013-03-10 18:32:00,56.0,46.0,29.74,SE,138,6.0,12.0,69,0.00,,,0.05,,2013-03-10 22:32:00,
2013-03-10 18:43:00,56.0,46.0,29.74,SE,138,6.0,12.0,69,0.00,,,0.05,,2013-03-10 22:43:00,
2013-03-10 18:52:00,56.0,46.0,29.73,SE,142,6.0,13.0,69,0.00,,,0.05,,2013-03-10 22:52:00,
2013-03-10 19:03:00,56.0,45.0,29.73,SE,133,7.0,10.0,67,0.00,,,0.05,,2013-03-10 23:03:00,
2013-03-10 19:12:00,56.0,45.0,29.73,SE,133,7.0,10.0,67,0.00,,,0.05,,2013-03-10 23:12:00,
2013-03-10 19:23:00,57.0,45.0,29.74,SSE,148,7.0,12.0,65,0.00,,,0.05,,2013-03-10 23:23:00,
2013-03-10 19:32:00,56.0,44.0,29.74,ESE,110,6.0,11.0,65,0.00,,,0.05,,2013-03-10 23:32:00,
2013-03-10 19:42:00,56.0,44.0,29.74,ESE,110,6.0,11.0,65,0.00,,,0.05,,2013-03-10 23:42:00,
2013-03-10 19:52:00,56.0,45.0,29.73,SE,133,6.0,12.0,66,0.00,,,0.05,,2013-03-10 23:52:00,
2013-03-10 20:02:00,55.0,44.0,29.73,SE,138,5.0,11.0,67,0.00,,,0.05,,2013-03-11 00:02:00,
2013-03-10 20:12:00,55.0,44.0,29.73,SE,138,5.0,11.0,67,0.00,,,0.05,,2013-03-11 00:12:00,
2013-03-10 20:23:00,55.0,45.0,29.75,South,191,4.0,10.0,69,0.01,,,0.06,,2013-03-11 00:23:00,
2013-03-10 20:33:00,53.0,45.0,29.76,SE,126,3.0,9.0,74,0.02,,,0.07,,2013-03-11 00:33:00,
2013-03-10 20:43:00,53.0,45.0,29.76,SE,126,3.0,9.0,74,0.02,,,0.07,,2013-03-11 00:43:00,
2013-03-10 20:52:00,52.0,45.0,29.75,SE,124,5.0,10.0,78,0.03,,,0.08,,2013-03-11 00:52:00,
2013-03-10 21:02:00,52.0,46.0,29.74,SE,127,3.0,6.0,80,0.04,,,0.09,,2013-03-11 01:02:00,
2013-03-10 21:13:00,52.0,46.0,29.74,SE,127,3.0,6.0,80,0.04,,,0.09,,2013-03-11 01:13:00,
2013-03-10 21:23:00,51.0,45.0,29.72,SE,138,5.0,9.0,79,0.03,,,0.09,,2013-03-11 01:23:00,
2013-03-10 21:32:00,51.0,44.0,29.71,SE,132,6.0,13.0,78,0.02,,,0.09,,2013-03-11 01:32:00,
2013-03-10 21:42:00,51.0,44.0,29.71,SE,132,6.0,13.0,78,0.02,,,0.09,,2013-03-11 01:42:00,
2013-03-10 21:52:00,51.0,44.0,29.71,ESE,119,7.0,11.0,76,0.01,,,0.09,,2013-03-11 01:52:00,
2013-03-10 22:02:00,51.0,43.0,29.70,SE,127,9.0,14.0,75,0.00,,,0.09,,2013-03-11 02:02:00,
2013-03-10 22:12:00,51.0,43.0,29.70,SE,127,9.0,14.0,75,0.00,,,0.09,,2013-03-11 02:12:00,
2013-03-10 22:22:00,52.0,44.0,29.70,East,101,5.0,10.0,75,0.00,,,0.09,,2013-03-11 02:22:00,
2013-03-10 22:32:00,53.0,44.0,29.71,SW,219,5.0,10.0,72,0.00,,,0.09,,2013-03-11 02:32:00,
2013-03-10 22:42:00,53.0,44.0,29.71,SW,219,5.0,10.0,72,0.00,,,0.09,,2013-03-11 02:42:00,
2013-03-10 22:52:00,53.0,44.0,29.71,ESE,113,4.0,9.0,72,0.00,,,0.09,,2013-03-11 02:52:00,
2013-03-10 23:02:00,53.0,44.0,29.70,South,184,2.0,8.0,72,0.00,,,0.09,,2013-03-11 03:02:00,
2013-03-10 23:12:00,53.0,44.0,29.70,South,184,2.0,8.0,72,0.00,,,0.09,,2013-03-11 03:12:00,
2013-03-10 23:22:00,53.0,44.0,29.71,SSE,159,3.0,8.0,72,0.00,,,0.09,,2013-03-11 03:22:00,
2013-03-10 23:32:00,54.0,45.0,29.70,SSE,150,3.0,8.0,72,0.00,,,0.09,,2013-03-11 03:32:00,
2013-03-10 23:42:00,54.0,45.0,29.70,SSE,150,3.0,8.0,72,0.00,,,0.09,,2013-03-11 03:42:00,
2013-03-10 23:52:00,54.0,45.0,29.70,South,169,3.0,8.0,72,0.00,,,0.09,,2013-03-11 03:52:00,